1512392400.35,63965,4.38,72644.0,-11.13,-11.67,-11.73,0,*68
1512392401.61,63966,4.38,72638.5,-11.11,-11.63,-11.77,0,*69
1512392402.89,63967,4.38,72646.0,-11.13,-11.73,-11.81,0,*62
1512392404.18,63968,4.38,72644.3,-11.13,-11.73,-11.81,0,*6D
1512392405.46,63969,4.44,72648.0,-11.13,-11.81,-11.81,0,*61
1512392406.74,63970,4.38,72646.3,-11.13,-11.81,-11.81,0,*69
1512392408.0,63971,4.38,72640.5,-11.11,-11.85,-11.85,0,*6A
1512392409.26,63972,4.38,72638.3,-11.11,-11.77,-11.81,0,*60
1512392410.54,63973,4.38,72640.5,-11.13,-11.81,-11.81,0,*6A
1512392411.82,63974,4.38,72640.8,-11.13,-11.81,-11.81,0,*6D
1512392413.11,63975,4.38,72642.5,-11.13,-11.81,-11.85,0,*68
1512392414.39,63976,4.38,72646.0,-11.13,-11.85,-11.81,0,*6B
1512392415.68,63977,4.38,72644.3,-11.13,-11.85,-11.85,0,*6E
1512392416.96,63978,4.44,72648.5,-11.13,-11.81,-11.81,0,*61
1512392418.25,63979,4.38,72644.5,-11.13,-11.85,-11.85,0,*60
1512392419.54,63980,4.38,72648.0,-11.13,-11.85,-11.85,0,*66
1512392420.84,63981,4.38,72648.0,-11.13,-11.93,-11.93,0,*67
1512392422.13,63982,4.38,72648.0,-11.13,-11.97,-11.93,0,*60
1512392423.4,63983,4.38,72650.0,-11.15,-11.97,-11.93,0,*67
1512392424.67,63984,4.38,72650.3,-11.15,-11.93,-11.93,0,*64
1512392425.94,63985,4.38,72644.5,-11.15,-11.93,-11.97,0,*61
1512392427.21,63986,4.38,72640.3,-11.15,-11.85,-11.93,0,*61
1512392428.47,63987,4.38,72642.0,-11.15,-11.85,-11.93,0,*60
1512392429.74,63988,4.38,72642.5,-11.15,-11.85,-11.93,0,*6F
1512392430.99,63989,4.44,72646.3,-11.15,-11.81,-11.81,0,*69
1512392432.25,63990,4.38,72638.5,-11.15,-11.85,-11.81,0,*65
1512392433.52,63991,4.38,72640.5,-11.15,-11.85,-11.85,0,*60
1512392434.78,63992,4.38,72638.5,-11.15,-11.81,-11.85,0,*67
1512392436.03,63993,4.38,72638.8,-11.15,-11.81,-11.85,0,*66
1512392437.3,63994,4.38,72638.3,-11.15,-11.85,-11.85,0,*65
1512392438.56,63995,4.38,72642.8,-11.15,-11.81,-11.93,0,*67
1512392439.82,63996,4.38,72640.8,-11.15,-11.81,-11.85,0,*63
1512392441.08,63997,4.38,72640.0,-11.15,-11.81,-11.85,0,*62
1512392442.34,63998,4.44,72642.5,-11.15,-11.81,-11.85,0,*6D
1512392443.59,63999,4.38,72640.3,-11.15,-11.81,-11.81,0,*68
1512392444.85,64000,4.38,72642.5,-11.15,-11.85,-11.81,0,*62
1512392446.11,64001,4.38,72642.8,-11.15,-11.85,-11.85,0,*67
1512392447.37,64002,4.38,72638.5,-11.15,-11.81,-11.85,0,*60
1512392448.63,64003,4.38,72642.3,-11.15,-11.73,-11.81,0,*68
1512392449.88,64004,4.38,72638.0,-11.15,-11.81,-11.81,0,*62
1512392451.14,64005,4.38,72640.0,-11.15,-11.81,-11.85,0,*67
1512392452.43,64006,4.38,72638.5,-11.17,-11.77,-11.85,0,*6F
1512392453.69,64007,4.38,72642.5,-11.15,-11.81,-11.81,0,*61
1512392454.95,64008,4.38,72636.0,-11.15,-11.73,-11.85,0,*67
1512392456.2,64009,4.38,72640.3,-11.15,-11.81,-11.81,0,*6F
1512392457.49,64010,4.38,72636.5,-11.17,-11.77,-11.85,0,*68
1512392458.75,64011,4.38,72642.0,-11.15,-11.67,-11.81,0,*6E
1512392460.04,64012,4.38,72640.0,-11.17,-11.77,-11.85,0,*6A
1512392461.3,64013,4.38,72646.5,-11.15,-11.73,-11.81,0,*69
1512392462.58,64014,4.38,72642.8,-11.17,-11.77,-11.81,0,*68
1512392463.87,64015,4.38,72644.5,-11.17,-11.89,-11.85,0,*6C
1512392465.16,64016,4.44,72646.5,-11.17,-11.85,-11.89,0,*6F
1512392466.43,64017,4.38,72646.5,-11.15,-11.85,-11.85,0,*60
1512392467.68,64018,4.38,72644.5,-11.15,-11.81,-11.81,0,*6F
1512392468.94,64019,4.38,72644.8,-11.15,-11.85,-11.85,0,*6E
1512392470.23,64020,4.44,72646.3,-11.17,-11.89,-11.85,0,*6A
1512392471.49,64021,4.38,72646.5,-11.15,-11.81,-11.81,0,*65
1512392472.75,64022,4.38,72640.3,-11.15,-11.89,-11.89,0,*66
1512392474.05,64023,4.44,72646.8,-11.17,-11.85,-11.89,0,*69
1512392475.34,64024,4.44,72642.5,-11.17,-11.89,-11.89,0,*62
1512392476.63,64025,4.44,72646.0,-11.17,-11.85,-11.89,0,*6F
1512392477.89,64026,4.44,72642.5,-11.15,-11.81,-11.85,0,*66
1512392479.15,64027,4.38,72640.8,-11.15,-11.89,-11.85,0,*6F
1512392480.45,64028,4.38,72640.3,-11.17,-11.89,-11.89,0,*6E
1512392481.71,64029,4.44,72646.3,-11.15,-11.85,-11.89,0,*61
1512392482.97,64030,4.44,72644.0,-11.15,-11.81,-11.85,0,*61
1512392484.23,64031,4.38,72640.5,-11.15,-11.81,-11.85,0,*60
1512392485.52,64032,4.38,72644.0,-11.17,-11.85,-11.89,0,*69
1512392486.82,64033,4.38,72640.8,-11.17,-11.85,-11.89,0,*68
1512392488.11,64034,4.38,72644.3,-11.17,-11.85,-11.89,0,*6F
1512392489.4,64035,4.38,72640.5,-11.17,-11.85,-11.89,0,*6E
1512392490.69,64036,4.44,72640.8,-11.17,-11.89,-11.85,0,*6D
1512392491.98,64037,4.38,72640.3,-11.17,-11.85,-11.85,0,*60
1512392493.27,64038,4.38,72646.3,-11.17,-11.89,-11.85,0,*63
1512392494.56,64039,4.38,72642.5,-11.17,-11.85,-11.89,0,*62
1512392495.85,64040,4.44,72650.3,-11.17,-11.89,-11.89,0,*60
1512392497.14,64041,4.38,72644.3,-11.17,-11.89,-11.97,0,*6E
1512392498.41,64042,4.44,72646.3,-11.15,-11.85,-11.93,0,*67
1512392499.67,64043,4.38,72642.5,-11.17,-11.89,-12.03,0,*62
1512392500.96,64044,4.38,72636.8,-11.17,-11.97,-11.97,0,*64
1512392502.25,64045,4.38,72636.8,-11.17,-11.89,-11.97,0,*6A
1512392503.52,64046,4.44,72642.3,-11.17,-11.89,-12.03,0,*67
1512392504.76,64047,4.38,72642.3,-11.17,-12.03,-12.03,0,*67
1512392506.02,64048,4.44,72640.5,-11.17,-12.03,-11.97,0,*66
1512392507.29,64049,4.38,72640.5,-11.17,-11.97,-12.03,0,*67
1512392508.55,64050,4.38,72640.8,-11.17,-11.97,-12.03,0,*6F
1512392509.82,64051,4.44,72640.0,-11.17,-11.97,-12.03,0,*6E
1512392511.11,64052,4.38,72642.5,-11.17,-11.97,-11.97,0,*63
1512392512.37,64053,4.44,72640.8,-11.17,-11.97,-12.03,0,*6C
1512392513.64,64054,4.38,72638.8,-11.17,-12.03,-11.97,0,*6B
1512392514.93,64055,4.44,72638.8,-11.17,-11.97,-11.97,0,*64
1512392516.21,64056,4.44,72638.3,-11.17,-11.89,-11.97,0,*68
1512392517.48,64057,4.44,72638.8,-11.17,-12.03,-11.97,0,*68
1512392518.77,64058,4.44,72638.5,-11.17,-11.89,-11.97,0,*66
1512392519.98,64059,4.38,72636.0,-11.19,-12.03,-12.03,0,*66
1512392521.2,64060,4.38,72636.3,-11.19,-12.03,-12.03,0,*6C
1512392522.46,64061,4.44,72640.3,-11.17,-12.03,-11.97,0,*6D
1512392523.73,64062,4.38,72638.8,-11.21,-12.07,-12.03,0,*61
1512392524.95,64063,4.44,72642.3,-11.19,-12.03,-12.03,0,*6F
1512392526.19,64064,4.38,72642.8,-11.19,-12.03,-12.07,0,*6C
1512392527.4,64065,4.38,72642.3,-11.19,-12.03,-12.03,0,*69
1512392528.62,64066,4.38,72640.5,-11.19,-12.03,-12.03,0,*6A
1512392529.84,64067,4.38,72640.3,-11.19,-12.03,-12.03,0,*6B
1512392531.11,64068,4.44,72642.3,-11.21,-11.93,-12.03,0,*65
1512392532.36,64069,4.38,72640.0,-11.19,-11.93,-12.03,0,*6F
1512392533.63,64070,4.44,72640.8,-11.19,-11.93,-12.07,0,*63
1512392534.85,64071,4.38,72642.0,-11.19,-12.03,-12.03,0,*6C
1512392536.12,64072,4.38,72640.0,-11.21,-11.93,-12.03,0,*6E
1512392537.39,64073,4.38,72640.0,-11.21,-11.93,-12.03,0,*6F
1512392538.64,64074,4.38,72638.5,-11.19,-11.93,-12.03,0,*63
1512392539.86,64075,4.38,72636.3,-11.19,-12.03,-12.03,0,*68
1512392541.16,64076,4.44,72638.0,-11.21,-11.93,-11.93,0,*60
1512392542.46,64077,4.44,72632.5,-11.21,-11.93,-11.93,0,*61
1512392543.75,64078,4.38,72632.0,-11.21,-11.89,-12.07,0,*6B
1512392544.97,64079,4.44,72634.3,-11.19,-12.03,-12.03,0,*64
1512392546.27,64080,4.38,72634.3,-11.21,-11.93,-12.07,0,*67
1512392547.54,64081,4.38,72634.0,-11.19,-11.93,-11.93,0,*63
1512392548.79,64082,4.38,72632.3,-11.19,-11.93,-12.03,0,*6A
1512392550.06,64083,4.44,72632.3,-11.19,-11.89,-11.93,0,*6A
1512392551.36,64084,4.38,72628.5,-11.21,-11.89,-11.93,0,*66
1512392552.65,64085,4.44,72632.3,-11.21,-11.89,-11.93,0,*67
1512392553.92,64086,4.38,72628.0,-11.19,-11.93,-11.93,0,*64
1512392555.22,64087,4.44,72630.0,-11.21,-11.93,-11.89,0,*65
1512392556.5,64088,4.44,72630.8,-11.19,-11.93,-11.93,0,*6A
1512392557.8,64089,4.44,72628.3,-11.21,-11.93,-11.89,0,*6B
1512392559.09,64090,4.44,72630.0,-11.21,-11.89,-11.89,0,*68
1512392560.39,64091,4.38,72628.5,-11.21,-11.89,-11.89,0,*69
1512392561.69,64092,4.44,72630.3,-11.21,-11.93,-11.89,0,*61
1512392562.98,64093,4.38,72630.0,-11.21,-11.89,-11.89,0,*6B
1512392564.28,64094,4.44,72632.3,-11.21,-11.93,-11.93,0,*6C
1512392565.58,64095,4.44,72634.3,-11.21,-11.93,-11.93,0,*6D
1512392566.85,64096,4.38,72634.0,-11.19,-11.93,-11.93,0,*65
1512392568.15,64097,4.38,72634.3,-11.21,-11.89,-11.93,0,*64
1512392569.42,64098,4.38,72634.0,-11.19,-11.93,-11.93,0,*6B
1512392570.7,64099,4.38,72634.3,-11.19,-11.93,-11.93,0,*6A
1512392571.97,64100,4.38,72638.5,-11.19,-11.89,-11.93,0,*60
1512392573.26,64101,4.44,72638.3,-11.21,-11.89,-11.89,0,*61
1512392574.56,64102,4.38,72636.0,-11.21,-11.89,-11.93,0,*69
1512392575.85,64103,4.38,72636.5,-11.21,-11.89,-11.93,0,*68
1512392577.15,64104,4.38,72638.3,-11.21,-11.89,-11.93,0,*6F
1512392578.44,64105,4.38,72638.8,-11.21,-11.89,-11.93,0,*6E
1512392579.73,64106,4.38,72638.3,-11.21,-11.89,-11.89,0,*66
1512392581.03,64107,4.44,72640.0,-11.21,-11.89,-11.89,0,*67
1512392582.32,64108,4.38,72636.3,-11.21,-11.89,-11.89,0,*68
1512392583.61,64109,4.38,72640.5,-11.21,-11.89,-11.93,0,*62
1512392584.88,64110,4.38,72642.8,-11.23,-11.81,-11.89,0,*6B
1512392586.17,64111,4.44,72644.8,-11.21,-11.81,-11.93,0,*63
1512392587.46,64112,4.44,72640.5,-11.21,-11.89,-11.89,0,*63
1512392588.75,64113,4.38,72642.0,-11.21,-11.81,-11.93,0,*61
1512392590.04,64114,4.38,72640.3,-11.21,-11.81,-11.89,0,*6D
1512392591.31,64115,4.44,72642.0,-11.19,-11.89,-11.89,0,*6F
1512392592.6,64116,4.44,72644.8,-11.21,-11.81,-11.89,0,*6F
1512392593.89,64117,4.38,72642.3,-11.21,-11.81,-11.89,0,*6E
1512392595.18,64118,4.44,72646.8,-11.21,-11.77,-11.89,0,*68
1512392596.47,64119,4.44,72646.0,-11.21,-11.81,-11.89,0,*60
1512392597.76,64120,4.38,72642.0,-11.21,-11.81,-11.89,0,*6A
1512392599.05,64121,4.44,72644.3,-11.21,-11.77,-11.81,0,*6A
1512392600.32,64122,4.38,72642.8,-11.19,-11.89,-11.89,0,*6B
1512392601.58,64123,4.38,72640.8,-11.19,-11.77,-11.81,0,*63
1512392602.86,64124,4.38,72640.8,-11.21,-11.81,-11.81,0,*66
1512392604.14,64125,4.44,72644.8,-11.21,-11.77,-11.81,0,*6E
1512392605.43,64126,4.38,72642.5,-11.21,-11.77,-11.81,0,*6D
1512392606.72,64127,4.38,72642.3,-11.21,-11.77,-11.77,0,*65
1512392607.98,64128,4.38,72642.8,-11.19,-11.77,-11.81,0,*68
1512392609.27,64129,4.38,72644.5,-11.21,-11.77,-11.81,0,*62
1512392610.53,64130,4.38,72646.5,-11.19,-11.63,-11.81,0,*64
1512392611.82,64131,4.38,72644.8,-11.21,-11.67,-11.77,0,*63
1512392613.11,64132,4.44,72648.5,-11.21,-11.67,-11.77,0,*60
1512392614.4,64133,4.44,72648.3,-11.21,-11.67,-11.77,0,*61
1512392615.68,64134,4.44,72646.5,-11.21,-11.67,-11.77,0,*66
1512392616.98,64135,4.44,72646.8,-11.21,-11.67,-11.67,0,*66
1512392618.27,64136,4.44,72644.3,-11.21,-11.67,-11.67,0,*65
1512392619.57,64137,4.44,72646.3,-11.21,-11.63,-11.63,0,*64
1512392620.86,64138,4.44,72644.8,-11.21,-11.67,-11.67,0,*6B
1512392622.16,64139,4.38,72646.0,-11.21,-11.67,-11.67,0,*6A
1512392623.43,64140,4.38,72646.3,-11.19,-11.63,-11.63,0,*6F
1512392624.73,64141,4.38,72646.5,-11.21,-11.63,-11.63,0,*65
1512392626.0,64142,4.38,72642.5,-11.19,-11.63,-11.67,0,*69
1512392627.3,64143,4.44,72648.3,-11.21,-11.63,-11.63,0,*67
1512392628.59,64144,4.44,72646.5,-11.21,-11.63,-11.67,0,*64
1512392629.88,64145,4.44,72644.5,-11.21,-11.67,-11.67,0,*61
1512392631.15,64146,4.44,72646.0,-11.19,-11.63,-11.67,0,*6D
1512392632.42,64147,4.44,72642.3,-11.19,-11.67,-11.67,0,*68
1512392633.69,64148,4.44,72642.5,-11.19,-11.63,-11.67,0,*63
1512392634.99,64149,4.38,72644.8,-11.21,-11.63,-11.67,0,*69
1512392636.26,64150,4.38,72642.3,-11.19,-11.63,-11.67,0,*6A
1512392637.56,64151,4.44,72644.5,-11.21,-11.63,-11.63,0,*64
1512392638.85,64152,4.44,72642.3,-11.21,-11.63,-11.67,0,*63
1512392640.12,64153,4.38,72642.3,-11.19,-11.63,-11.67,0,*69
1512392641.4,64154,4.38,72642.3,-11.19,-11.63,-11.63,0,*6A
1512392642.69,64155,4.44,72646.5,-11.17,-11.59,-11.63,0,*6C
1512392643.96,64156,4.44,72644.0,-11.19,-11.63,-11.67,0,*6C
1512392645.23,64157,4.44,72642.8,-11.19,-11.67,-11.67,0,*69
1512392646.53,64158,4.44,72642.5,-11.17,-11.59,-11.63,0,*61
1512392647.82,64159,4.38,72642.5,-11.17,-11.59,-11.59,0,*69
1512392649.11,64160,4.38,72640.0,-11.17,-11.59,-11.59,0,*63
1512392650.4,64161,4.44,72642.5,-11.17,-11.59,-11.59,0,*62
1512392651.7,64162,4.38,72640.0,-11.17,-11.63,-11.63,0,*61
1512392652.99,64163,4.44,72646.3,-11.17,-11.51,-11.63,0,*61
1512392654.27,64164,4.38,72636.3,-11.19,-11.63,-11.63,0,*69
1512392655.54,64165,4.44,72644.0,-11.19,-11.63,-11.67,0,*6C
1512392656.81,64166,4.38,72640.8,-11.19,-11.63,-11.63,0,*6B
1512392658.11,64167,4.44,72646.0,-11.17,-11.59,-11.63,0,*6D
1512392659.38,64168,4.38,72640.0,-11.19,-11.63,-11.63,0,*65
1512392660.67,64169,4.38,72644.3,-11.17,-11.59,-11.59,0,*6A
1512392661.94,64170,4.38,72642.8,-11.15,-11.55,-11.55,0,*60
1512392663.24,64171,4.44,72644.3,-11.17,-11.59,-11.63,0,*6A
1512392664.53,64172,4.44,72644.5,-11.17,-11.59,-11.59,0,*60
1512392665.82,64173,4.38,72644.5,-11.17,-11.63,-11.63,0,*61
1512392667.12,64174,4.38,72644.5,-11.17,-11.59,-11.63,0,*6F
1512392668.39,64175,4.38,72644.5,-11.15,-11.59,-11.59,0,*65
1512392669.68,64176,4.38,72646.0,-11.17,-11.59,-11.63,0,*6D
1512392670.98,64177,4.44,72648.0,-11.17,-11.63,-11.63,0,*65
1512392672.28,64178,4.44,72646.5,-11.17,-11.59,-11.63,0,*63
1512392673.57,64179,4.44,72646.8,-11.17,-11.59,-11.63,0,*62
1512392674.82,64180,4.44,72648.8,-11.15,-11.45,-11.59,0,*62
1512392676.12,64181,4.44,72650.3,-11.17,-11.63,-11.63,0,*6C
1512392677.4,64182,4.38,72648.0,-11.17,-11.51,-11.59,0,*67
1512392678.67,64183,4.44,72648.8,-11.15,-11.55,-11.55,0,*6C
1512392679.93,64184,4.44,72646.5,-11.15,-11.55,-11.59,0,*67
1512392681.23,64185,4.38,72644.3,-11.17,-11.63,-11.63,0,*68
1512392682.52,64186,4.38,72648.0,-11.17,-11.59,-11.59,0,*6B
1512392683.79,64187,4.44,72650.0,-11.15,-11.55,-11.59,0,*64
1512392685.05,64188,4.44,72650.3,-11.15,-11.55,-11.55,0,*67
1512392686.32,64189,4.38,72646.5,-11.15,-11.55,-11.55,0,*66
1512392687.62,64190,4.44,72650.3,-11.17,-11.59,-11.63,0,*65
1512392688.9,64191,4.38,72646.0,-11.17,-11.51,-11.51,0,*6D
1512392690.17,64192,4.38,72650.0,-11.15,-11.55,-11.59,0,*60
1512392691.43,64193,4.38,72650.8,-11.15,-11.59,-11.59,0,*6D
1512392692.72,64194,4.38,72644.5,-11.17,-11.59,-11.73,0,*60
1512392693.99,64195,4.44,72650.3,-11.15,-11.59,-11.59,0,*6B
1512392695.25,64196,4.38,72650.3,-11.15,-11.59,-11.67,0,*65
1512392696.52,64197,4.44,72648.5,-11.15,-11.55,-11.59,0,*65
1512392697.82,64198,4.38,72646.8,-11.17,-11.59,-11.63,0,*6D
1512392699.08,64199,4.44,72648.5,-11.15,-11.55,-11.59,0,*6B
1512392700.35,64200,4.38,72648.0,-11.15,-11.55,-11.55,0,*64
1512392701.64,64201,4.44,72650.3,-11.17,-11.59,-11.63,0,*6E
1512392702.91,64202,4.38,72646.0,-11.15,-11.55,-11.59,0,*6A
1512392704.17,64203,4.38,72646.3,-11.15,-11.55,-11.55,0,*67
1512392705.44,64204,4.38,72650.0,-11.15,-11.59,-11.55,0,*6C
1512392706.74,64205,4.44,72648.5,-11.17,-11.59,-11.63,0,*6A
1512392708.0,64206,4.44,72652.0,-11.15,-11.55,-11.55,0,*62
1512392709.27,64207,4.44,72650.5,-11.15,-11.55,-11.55,0,*63
1512392710.54,64208,4.44,72654.0,-11.17,-11.45,-11.59,0,*63
1512392711.79,64209,4.44,72652.3,-11.15,-11.41,-11.55,0,*68
1512392713.07,64210,4.44,72650.5,-11.17,-11.51,-11.59,0,*6F
1512392714.37,64211,4.44,72654.0,-11.13,-11.55,-11.55,0,*62
1512392715.61,64212,4.38,72650.5,-11.15,-11.55,-11.45,0,*66
1512392716.85,64213,4.44,72654.8,-11.15,-11.45,-11.55,0,*67
1512392718.1,64214,4.44,72652.3,-11.15,-11.45,-11.55,0,*60
1512392719.34,64215,4.38,72648.8,-11.15,-11.45,-11.59,0,*6D
1512392720.58,64216,4.44,72650.8,-11.15,-11.55,-11.45,0,*62
1512392721.83,64217,4.38,72648.8,-11.15,-11.45,-11.59,0,*6F
1512392723.09,64218,4.44,72652.3,-11.15,-11.55,-11.55,0,*6D
1512392724.39,64219,4.38,72652.3,-11.13,-11.55,-11.55,0,*6A
1512392725.68,64220,4.44,72652.8,-11.13,-11.59,-11.55,0,*6C
1512392726.97,64221,4.44,72652.0,-11.13,-11.55,-11.55,0,*61
1512392728.26,64222,4.44,72654.5,-11.13,-11.55,-11.55,0,*62
1512392729.55,64223,4.38,72650.0,-11.13,-11.55,-11.59,0,*6F
1512392730.85,64224,4.44,72652.3,-11.13,-11.55,-11.55,0,*64
1512392732.11,64225,4.44,72652.8,-11.11,-11.51,-11.51,0,*67
1512392733.37,64226,4.44,72652.8,-11.13,-11.55,-11.45,0,*67
1512392734.64,64227,4.44,72654.3,-11.13,-11.55,-11.45,0,*66
1512392735.89,64228,4.44,72654.0,-11.13,-11.45,-11.45,0,*68
1512392737.15,64229,4.38,72652.0,-11.13,-11.55,-11.45,0,*68
1512392738.45,64230,4.44,72654.0,-11.13,-11.59,-11.55,0,*6D
1512392739.72,64231,4.44,72656.3,-11.13,-11.45,-11.55,0,*61
1512392740.99,64232,4.44,72654.3,-11.13,-11.45,-11.55,0,*62
1512392742.24,64233,4.44,72654.0,-11.13,-11.45,-11.45,0,*62
1512392743.51,64234,4.44,72654.0,-11.13,-11.45,-11.55,0,*64
1512392744.78,64235,4.44,72654.5,-11.11,-11.55,-11.55,0,*66
1512392746.06,64236,4.44,72658.3,-11.13,-11.59,-11.51,0,*6F
1512392747.36,64237,4.44,72656.8,-11.13,-11.55,-11.59,0,*6A
1512392748.65,64238,4.44,72654.8,-11.13,-11.59,-11.55,0,*65
1512392749.94,64239,4.44,72656.3,-11.13,-11.59,-11.59,0,*68
1512392751.23,64240,4.44,72658.3,-11.13,-11.73,-11.63,0,*67
1512392752.52,64241,4.44,72654.3,-11.13,-11.67,-11.73,0,*62
1512392753.79,64242,4.44,72654.0,-11.11,-11.63,-11.67,0,*62
1512392755.06,64243,4.44,72654.3,-11.11,-11.63,-11.63,0,*67
1512392756.32,64244,4.38,72658.5,-11.11,-11.67,-11.77,0,*61
1512392757.58,64245,4.44,72656.8,-11.11,-11.67,-11.77,0,*60
1512392758.87,64246,4.44,72654.5,-11.13,-11.73,-11.85,0,*69
1512392760.16,64247,4.38,72652.5,-11.13,-11.81,-11.93,0,*62
1512392761.45,64248,4.44,72652.8,-11.13,-11.85,-11.93,0,*69
1512392762.73,64249,4.44,72656.0,-11.13,-11.81,-11.97,0,*68
1512392764.03,64250,4.38,72652.8,-11.13,-11.93,-11.97,0,*63
1512392765.32,64251,4.44,72658.5,-11.13,-11.97,-11.97,0,*66
1512392766.61,64252,4.44,72656.8,-11.13,-11.93,-11.97,0,*61
1512392767.87,64253,4.44,72652.5,-11.11,-11.81,-11.93,0,*65
1512392769.16,64254,4.38,72652.8,-11.13,-11.97,-11.97,0,*63
1512392770.46,64255,4.44,72654.8,-11.13,-11.93,-11.97,0,*66
1512392771.72,64256,4.44,72654.0,-11.13,-11.97,-12.03,0,*6F
1512392773.0,64257,4.44,72652.8,-11.11,-11.93,-11.93,0,*62
1512392774.26,64258,4.44,72660.3,-11.15,-11.97,-11.97,0,*69
1512392775.53,64259,4.44,72660.0,-11.13,-11.97,-12.03,0,*60
1512392776.79,64260,4.44,72656.5,-11.13,-11.97,-12.03,0,*6A
1512392778.06,64261,4.44,72654.0,-11.17,-12.03,-12.07,0,*65
1512392779.3,64262,4.44,72654.3,-11.15,-11.97,-12.03,0,*6E
1512392780.53,64263,4.44,72652.8,-11.15,-12.03,-12.11,0,*62
1512392781.82,64264,4.44,72652.3,-11.17,-12.15,-12.15,0,*64
1512392783.06,64265,4.44,72652.5,-11.15,-12.03,-12.11,0,*64
1512392784.3,64266,4.38,72650.3,-11.15,-12.03,-12.11,0,*67
1512392785.59,64267,4.44,72650.0,-11.17,-12.07,-12.15,0,*64
1512392786.8,64268,4.38,72648.0,-11.15,-12.03,-12.03,0,*6A
1512392788.04,64269,4.44,72650.3,-11.15,-12.03,-12.11,0,*68
1512392789.33,64270,4.44,72650.0,-11.17,-12.07,-12.07,0,*61
1512392790.57,64271,4.44,72648.8,-11.15,-12.03,-12.11,0,*61
1512392791.78,64272,4.44,72650.0,-11.15,-12.03,-12.03,0,*61
1512392793.08,64273,4.44,72646.0,-11.17,-12.07,-12.07,0,*62
1512392794.37,64274,4.44,72644.8,-11.17,-12.07,-12.07,0,*65
1512392795.64,64275,4.44,72644.3,-11.19,-12.11,-12.11,0,*6A
1512392796.93,64276,4.44,72644.5,-11.17,-12.15,-12.07,0,*64
1512392798.22,64277,4.44,72646.5,-11.17,-12.07,-12.07,0,*66
1512392799.52,64278,4.44,72646.3,-11.17,-12.07,-12.07,0,*69
1512392800.81,64279,4.44,72646.0,-11.17,-12.07,-12.07,0,*68
1512392802.1,64280,4.44,72646.0,-11.17,-12.07,-12.07,0,*6E
1512392803.39,64281,4.44,72644.0,-11.17,-12.07,-12.07,0,*6F
1512392804.69,64282,4.44,72648.5,-11.17,-12.07,-12.07,0,*6C
1512392805.98,64283,4.44,72648.8,-11.17,-12.07,-12.07,0,*6D
1512392807.27,64284,4.38,72640.5,-11.17,-12.07,-12.15,0,*69
1512392808.53,64285,4.44,72640.0,-11.17,-12.03,-12.15,0,*6C
1512392809.8,64286,4.44,72644.5,-11.17,-11.97,-12.03,0,*66
1512392811.06,64287,4.44,72642.5,-11.17,-11.97,-12.03,0,*67
1512392812.31,64288,4.44,72640.3,-11.19,-12.03,-12.07,0,*6C
1512392813.55,64289,4.44,72642.5,-11.19,-12.03,-12.07,0,*6D
1512392814.81,64290,4.44,72642.8,-11.21,-12.03,-12.07,0,*6E
1512392816.06,64291,4.38,72638.5,-11.19,-12.07,-12.03,0,*64
1512392817.3,64292,4.44,72642.8,-11.19,-12.03,-12.07,0,*67
1512392818.51,64293,4.44,72642.3,-11.19,-12.03,-12.03,0,*62
1512392819.76,64294,4.44,72642.8,-11.19,-12.03,-12.07,0,*61
1512392821.0,64295,4.44,72638.0,-11.19,-12.03,-12.07,0,*60
1512392822.26,64296,4.44,72638.8,-11.21,-12.03,-12.07,0,*68
1512392823.51,64297,4.44,72640.5,-11.19,-12.07,-12.03,0,*62
1512392824.77,64298,4.44,72638.3,-11.21,-12.03,-12.07,0,*66
1512392825.99,64299,4.44,72632.5,-11.19,-12.03,-12.03,0,*68
1512392827.25,64300,4.44,72632.3,-11.21,-12.03,-12.07,0,*66
1512392828.47,64301,4.38,72632.8,-11.19,-12.03,-12.03,0,*68
1512392829.71,64302,4.38,72634.8,-11.21,-12.03,-12.03,0,*60
1512392830.97,64303,4.44,72638.8,-11.21,-11.89,-12.03,0,*60
1512392832.22,64304,4.44,72638.3,-11.19,-11.93,-12.03,0,*67
1512392833.47,64305,4.44,72636.8,-11.19,-12.03,-12.07,0,*68
1512392834.68,64306,4.44,72634.0,-11.19,-12.03,-12.03,0,*6F
1512392835.92,64307,4.44,72638.0,-11.19,-12.03,-12.07,0,*6A
1512392837.17,64308,4.44,72636.0,-11.19,-12.03,-12.07,0,*65
1512392838.43,64309,4.44,72632.5,-11.21,-12.03,-12.07,0,*6F
1512392839.7,64310,4.44,72636.5,-11.19,-12.07,-12.07,0,*68
1512392840.94,64311,4.44,72638.5,-11.19,-12.03,-12.07,0,*6D
1512392842.23,64312,4.44,72636.8,-11.21,-12.07,-12.07,0,*61
1512392843.53,64313,4.44,72638.8,-11.21,-12.07,-12.07,0,*60
1512392844.82,64314,4.44,72636.0,-11.21,-12.07,-12.07,0,*67
1512392846.08,64315,4.44,72634.0,-11.21,-12.03,-12.07,0,*62
1512392847.33,64316,4.44,72634.5,-11.19,-12.03,-12.07,0,*6A
1512392848.59,64317,4.38,72630.5,-11.21,-12.03,-12.07,0,*60
1512392849.88,64318,4.44,72632.0,-11.21,-12.07,-12.07,0,*6B
1512392851.15,64319,4.44,72634.0,-11.23,-12.07,-12.07,0,*68
1512392852.4,64320,4.44,72630.5,-11.23,-12.03,-12.07,0,*66
1512392853.61,64321,4.44,72630.0,-11.23,-12.03,-12.03,0,*63
1512392854.83,64322,4.44,72630.3,-11.19,-12.03,-12.03,0,*69
1512392856.1,64323,4.44,72630.5,-11.21,-11.93,-12.03,0,*69
1512392857.37,64324,4.44,72630.8,-11.21,-11.93,-12.03,0,*6E
1512392858.61,64325,4.44,72630.3,-11.21,-12.03,-12.03,0,*65
1512392859.85,64326,4.44,72630.8,-11.21,-12.03,-12.03,0,*66
1512392861.15,64327,4.44,72634.8,-11.21,-11.93,-12.07,0,*69
1512392862.43,64328,4.44,72630.8,-11.21,-11.93,-12.03,0,*62
1512392863.67,64329,4.44,72628.5,-11.23,-11.93,-12.03,0,*61
1512392864.95,64330,4.44,72632.8,-11.23,-11.89,-11.93,0,*68
1512392866.22,64331,4.44,72630.8,-11.23,-11.89,-11.93,0,*69
1512392867.46,64332,4.44,72632.5,-11.19,-11.89,-12.03,0,*69
1512392868.73,64333,4.44,72632.3,-11.21,-12.03,-11.93,0,*68
1512392870.02,64334,4.44,72636.0,-11.21,-11.89,-11.93,0,*6E
1512392871.31,64335,4.38,72634.5,-11.21,-11.89,-11.93,0,*6F
1512392872.61,64336,4.44,72640.8,-11.21,-11.89,-11.93,0,*6C
1512392873.9,64337,4.44,72638.8,-11.21,-11.89,-11.89,0,*66
1512392875.2,64338,4.44,72640.5,-11.21,-11.89,-11.93,0,*62
1512392876.47,64339,4.44,72638.8,-11.23,-11.93,-11.93,0,*6A
1512392877.77,64340,4.44,72642.3,-11.21,-11.93,-11.89,0,*6D
1512392879.07,64341,4.44,72640.8,-11.21,-11.93,-11.89,0,*6C
1512392880.37,64342,4.44,72640.0,-11.21,-11.93,-11.93,0,*64
1512392881.67,64343,4.44,72640.5,-11.21,-11.93,-11.93,0,*65
1512392882.97,64344,4.44,72642.3,-11.21,-11.89,-11.93,0,*69
1512392884.26,64345,4.44,72638.5,-11.21,-11.89,-11.93,0,*68
1512392885.56,64346,4.38,72632.5,-11.21,-11.93,-11.93,0,*60
1512392886.84,64347,4.44,72634.0,-11.23,-11.93,-11.93,0,*63
1512392888.11,64348,4.44,72632.3,-11.23,-11.93,-11.93,0,*6C
1512392889.41,64349,4.38,72630.8,-11.25,-11.93,-11.97,0,*6F
1512392890.68,64350,4.44,72630.5,-11.23,-11.93,-11.89,0,*6E
1512392891.99,64351,4.44,72630.0,-11.21,-11.93,-11.93,0,*66
1512392893.28,64352,4.44,72626.8,-11.21,-11.89,-11.93,0,*6E
1512392894.57,64353,4.44,72628.8,-11.21,-11.89,-11.93,0,*6F
1512392895.87,64354,4.44,72630.3,-11.21,-11.89,-11.93,0,*68
1512392897.14,64355,4.38,72626.3,-11.23,-11.89,-11.89,0,*60
1512392898.41,64356,4.44,72630.5,-11.23,-11.89,-11.93,0,*68
1512392899.68,64357,4.44,72632.5,-11.23,-11.89,-11.93,0,*69
1512392900.95,64358,4.44,72634.8,-11.23,-11.93,-11.89,0,*66
1512392902.25,64359,4.44,72636.0,-11.25,-11.93,-11.97,0,*6E
1512392903.52,64360,4.44,72638.3,-11.23,-11.89,-11.93,0,*6D
1512392904.79,64361,4.44,72638.3,-11.23,-11.89,-11.93,0,*6C
1512392906.04,64362,4.44,72636.8,-11.23,-11.93,-12.03,0,*6E
1512392907.32,64363,4.44,72636.5,-11.23,-11.93,-11.93,0,*65
1512392908.59,64364,4.44,72636.5,-11.23,-11.89,-11.93,0,*69